Location: Malvern Link
(52.1333°N, 2.3000°W)
Time: 04:01:22
(UTC+00:00)

Envisat - Pass Details

Date: 22 January 2022
Orbit: 764 x 765 km, 98.2° (Epoch: 25 May)

Event Time Altitude Azimuth Distance (km) Brightness Sun altitude
Rises 03:25:28 0° 30° (NNE) 3,243 6.8 -41.8°
Reaches altitude 10° 03:29:38 10° 64° (ENE) 2,310 6.1 -41.2°
Maximum altitude 03:31:16 11° 83° (E) 2,207 6.0 -41.0°
Drops below altitude 10° 03:32:55 10° 102° (ESE) 2,305 6.0 -40.7°
Sets 03:37:02 0° 135° (SE) 3,223 6.5 -40.1°
